FENGYUN 1C DEB

Satellite information

Favourite Embed

Satellite Type and Status

DEBRISIN ORBIT

Key statistics

Satellite FENGYUN 1C DEB at a glance.

Uptime

9498

Days in orbit

Revolutions

≈ 14.1

Per day

Orbit

SSO

Sun Synchronous Orbit

Inclination

98.8

Latest

Satellite identification and parameters

Extended collection of information and parameters for FENGYUN 1C DEB.

Object identification

Identified? True

Debris? True

Object name: FENGYUN 1C DEB

International designator: 1999-025ALH

Object number (NORAD): 30567

Object ID (CCSDS): 30567

Country: PEOPLES REPUBLIC OF CHINA (PRC)

Current information (Y/N): Y

RCS size: SMALL

Orbital parameters

Period: 102.228 minutes

Inclination: 98.7621 deg

SMA: 7242.261 km

Apoapsis: 944.321 km

Periapsis: 783.931 km

RAAN: 127.0638 deg

Eccentricy: 0.0110732

Argument of periapsis: 80.3839 deg

Mean anomaly: 44.63 deg

Mean motion: 14.08612302 rev/day

Mean motion (dot): 0.00000736 rev/day2

B* drag term: 0.00042738 1/REarth

Two-line elements (TLE)

Creation date: May 10, 2025, 10:56 p.m.

Reference frame: TEME

Reference center: EARTH

Epoch: May 10, 2025, 12:25 p.m. UTC

TLE line 0: 0 FENGYUN 1C DEB

TLE line 1: 1 30567U 99025ALH 25130.51755609 .00000736 00000-0 42738-3 0 9998

TLE line 2: 2 30567 98.7621 127.0638 0110732 80.3839 44.6300 14.08612302937337

Live tracking on map

Real-time ground track for satellite FENGYUN 1C DEB.

In-orbit conjunctions

A list of the most updated potential collisions computed for object FENGYUN 1C DEB.

Target Orbit TCA Probability of collision Miss distance Type
NOAA 10 SSO 2025-05-01 10:02:49 0.0003269695 431.0 (m) PAYLOAD

Associated space launch

Chinese polar orbiting meteorological satellite

FENGYUN 1C DEB was lifted into orbit during the mission ‘Long March 4B | Feng Yun 1C’, on board a Long March 4B space rocket.

The launch took place on May 10, 1999, 1:33 a.m. from Launch Complex 7.

For more information about the launch, click the button.

Launch to space Long March 4B | Feng Yun 1C
Long March 4B | Feng Yun 1C

Agency: N/A

Status: Launch Successful

Launch date: May 10, 1999, 1:33 a.m. UTC

Rocket: Long March 4B

Launch pad: Launch Complex 7

Location: Taiyuan Satellite Launch Center, People's Republic of China

...

Latest news about this satellite

There are no fresh news available about this satellite. Check back as we update our databases every day.


Newsletter sign-up

Weekly statistics, charts and insights to help you stay on top of the space industry.